Location: *
(43.9900°N, 3.4811°E)
Time: 10:24:48
(UTC+00:00)

ASTEX 1 - Pass Details

Date: 25 August 2019
Orbit: 719 x 745 km, 92.7° (Epoch: 18 September)

Event Time Altitude Azimuth Distance (km) Brightness Sun altitude
Rises 19:28:25 0° 16° (NNE) 3,170 6.8 -9.9°
Reaches altitude 10° 19:31:01 10° 27° (NNE) 2,238 5.9 -10.3°
Maximum altitude 19:35:18 29° 87° (E) 1,318 4.3 -11.0°
Enters shadow 19:39:02 12° 144° (SE) 2,045 5.2 -11.6°
